www.pogodaiklimat.ru

Погода и климат >> Архив погоды >> Россия >> Магаданская область >> Остров Спафарьева


ПОГОДА на Остров Спафарьева

  • Прогноз погоды на Остров Спафарьева
  • Монитор погоды на Остров Спафарьева
  • Климат города

АРХИВ ПОГОДЫ на Остров Спафарьева

Время (UTC), дата Ветер
(напр.,м/с)
 
Видим.   Явления Облачность Т
(С)
Тd
(С)
f
(%)
Тe
(С)
Тes
(С)
Комфортность P
(гПа)
Po
(гПа)
Тmin
(С)
Tmax
(С)
R
(мм)
R24
(мм)
S
(см)
18 11.12 С 5
{12}
50 км ясно -13.5 -19.0 63 -22 -22 1014.7 1007.8
21 11.12 С 3 50 км 9/6 600 м
[Sc Ci fib]
-13.2 -18.9 62 -19 -19 1014.8 1007.9 -14.1 17
00 12.12 С 5 50 км 9/1 600 м
[Sc Ac trans Ci fib]
-13.0 -19.0 61 -21 -21 1015.4 1008.5
03 12.12 С 1 50 км 9/1 600 м
[Sc Ac lent Ci fib]
-12.8 -19.8 56 -15 -15 1015.3 1008.4
06 12.12 СВ 6 50 км 9/1 600 м
[Sc Ac lent Ci fib]
-14.3 -20.8 58 -24 -24 1015.6 1008.6
09 12.12 СВ 4 50 км 9/0
[Ci fib]
-14.1 -19.9 61 -22 -22 1015.8 1008.9 -12.6
12 12.12 СВ 2 50 км 9/0
[Ci fib]
-14.2 -20.8 57 -19 -19 1016.0 1009.0
15 12.12 СВ 1 50 км 9/0
[Ci fib]
-14.0 -22.2 50 -16 -16 1015.3 1008.3
18 12.12 СВ 1 50 км 9/0
[Ci fib]
-14.2 -21.4 54 -17 -17 1014.8 1007.8
21 12.12 С 1 50 км 9/0
[Ci fib]
-14.6 -22.0 53 -17 -17 1014.3 1007.3 -14.8 17
00 13.12 В 1 50 км ясно -13.6 -20.1 58 -16 -16 1013.9 1007.0
03 13.12 штиль 0
{10}
50 км ясно -12.9 -21.6 48 -13 -13 1012.5 1005.6
06 13.12 С 2 50 км ясно -14.2 -22.2 51 -19 -19 1011.6 1004.7
09 13.12 С 2 50 км ясно -14.4 -21.9 53 -19 -19 1011.4 1004.5 -12.6
12 13.12 С 1 50 км ясно -14.4 -22.6 50 -17 -17 1011.0 1004.1
15 13.12 С 1 50 км ясно -13.6 -20.9 54 -16 -16 1010.1 1003.2
18 13.12 СЗ 1 50 км 3/1 600 м
[Sc Ci fib]
-14.2 -20.1 61 -17 -17 1010.0 1003.1
21 13.12 С 1 50 км 9/1 600 м
[Sc Ci fib]
-14.3 -19.4 65 -17 -17 1009.8 1002.9 -15.5 17
00 14.12 ЮЗ 1 50 км 9/3 600 м
[Sc Ac trans]
-13.8 -19.0 65 -16 -16 1010.0 1003.1
03 14.12 СЗ 1 50 км 9/3 600 м
[Sc Ac trans]
-13.8 -19.5 62 -16 -16 1008.9 1002.0
06 14.12 З 1
{10}
50 км 9/3 600 м
[Cb cap Ac trans]
-12.7 -17.6 67 -15 -15 1008.3 1001.4
09 14.12 З 2 50 км 9/3 600 м
[Cb cap Ac trans]
-12.1 -16.0 73 -17 -17 1008.3 1001.5 -12.1
12 14.12 З 1 50 км 9/3 600 м
[Cb cap Ac trans]
-11.7 -14.9 77 -14 -14 1008.0 1001.2
15 14.12 В 9-11
{11}
50 км 9/3 600 м
[Cb cap Ac trans]
-10.7 -14.2 75 -21 -21 1007.0 1000.2
18 14.12 СВ 10-14
{14}
50 км 9/3 600 м
[Cb cap Ac trans]
-11.5 -14.1 81 -22 -22 1006.3 999.5
21 14.12 СВ 12-15
{17}
50 км позёмок {метель} 3/3 600 м
[Sc]
-11.3 -13.0 87 -23 -23 1005.7 998.9 -12.3 16
00 15.12 СВ 12-16
{16}
4000 м слабый ливневой снег {метель} 10/10 600 м
[Cb cap]
-11.7 -14.3 81 -23 -23 1005.8 999.0
03 15.12 СВ 6
{16}
50 км позёмок {ливн. осадки, метель} 10/10 600 м
[Cb cap]
-9.6 -11.9 83 -18 -18 1005.6 998.8
06 15.12 СВ 8-11
{12}
50 км сильный позёмок {ливн. осадки, метель} 4/4 600 м
[Cb cap]
-10.7 -12.9 84 -21 -21 1005.5 998.7
09 15.12 СВ 9-12
{13}
50 км сильный позёмок {метель} 3/3 600 м
[Cb cap]
-10.6 -12.6 85 -21 -21 1006.2 999.4 -9.2 0.2
12 15.12 СВ 6
{13}
50 км {метель} 6/6 600 м
[Cb cap]
-9.7 -12.8 78 -18 -18 1006.5 999.7
15 15.12 штиль 0 50 км 10/10 600 м
[Cb cap]
-9.0 -11.8 80 -9 -9 1006.6 999.8
18 15.12 С 2 50 км 9/8 600 м
[Cb cap Ci fib]
-9.4 -12.2 80 -14 -14 1007.0 1000.2
21 15.12 В 1 50 км ясно -10.0 -12.5 82 -12 -12 1007.6 1000.8 -10.9 22
00 16.12 ЮВ 2 50 км 3/1 600 м
[Sc Ac trans]
-8.9 -12.0 78 -13 -13 1008.2 1001.5 -11.8
03 16.12 В 1 50 км 9/9 600 м
[Sc]
-9.1 -12.9 74 -11 -11 1008.0 1001.2
06 16.12 СВ 4 50 км 9/9 600 м
[Cb cap]
-9.1 -14.1 67 -16 -16 1008.7 1001.9
09 16.12 З 1 10 км слабый ливневой снег 10/10 600 м
[Cb cap]
-9.3 -12.3 79 -12 -12 1009.2 1002.3 -8.3 0.0
12 16.12 штиль 0 50 км {ливн. осадки} 10/10 600 м
[Cb cap]
-8.6 -11.4 80 -9 -9 1008.9 1002.2
15 16.12 ЮВ 2 4000 м слабый ливневой снег 10/10 600 м
[Cb cap]
-8.3 -9.5 91 -13 -13 1008.5 1001.8
18 16.12 С 3 50 км {ливн. осадки} 10/10 600 м
[Cb cap]
-8.4 -10.3 86 -14 -14 1008.6 1001.8
21 16.12 В 1 10 км слабый ливневой снег 10/10 600 м
[Cb cap]
-8.8 -10.4 88 -11 -11 1009.1 1002.3 -9.4 2 27
00 17.12 штиль 0 50 км слабый ливневой снег 10/10 600 м
[Cb cap]
-8.8 -10.3 89 -9 -9 1009.3 1002.5 -9.8
03 17.12 З 2 50 км в посл. час ливневой снег 9/5 600 м
[Cb cap Ci fib]
-8.0 -10.1 85 -12 -12 1008.5 1001.7
06 17.12 СВ 7
{11}
50 км позёмок {ливн. осадки, метель} 4/4 600 м
[Cb cap]
-7.6 -10.0 83 -16 -16 1007.8 1001.0
09 17.12 СВ 8-10
{11}
50 км {метель} 10/0
[Cs]
-8.2 -10.7 82 -18 -18 1007.3 1000.6 -6.8 0.4
12 17.12 СВ 6
{10}
50 км позёмок {метель} 10/6 600 м
[Cb cap Cs]
-6.9 -8.7 87 -15 -15 1006.5 999.8
15 17.12 СВ 7
{10}
50 км позёмок {метель} 10/5 600 м
[Cb cap Cs]
-6.3 -8.3 86 -15 -15 1004.6 997.9
18 17.12 ЮВ 9-12
{12}
2000 м слабый ливневой снег {метель} 10/10 600 м
[Cb cap]
-4.2 -5.3 92 -13 -13 1002.5 995.9
21 17.12 В 13-16
{17}
10 км слабый ливневой снег {метель} 9/9 600 м
[Cb cap]
-5.3 -6.6 91 -16 -16 1000.8 994.2 -8.2 4 27
00 18.12 В 11-18
{19}
10 км метель {ливн. осадки} 10/10 600 м
[Cb cap]
-5.7 -7.4 88 -16 -16 999.3 992.7
03 18.12 В 9-16
{21}
10 км метель 10/8 600 м
[Cb cap Cs]
-6.5 -8.6 85 -16 -16 996.2 989.6
06 18.12 В 10-21
{21}
10 км метель 10/10 600 м
[Cb cap]
-6.4 -8.5 85 -16 -16 993.4 986.8
09 18.12 В 15-23
{30}
500 м сильная метель ?/? -6.2 -7.6 90 -18 -18 990.9 984.3 -5.3 0.0
12 18.12 В 15-26
{31}
1000 м метель 10/10 600 м
[Cb cap]
-6.6 -8.1 89 -18 -18 989.1 982.5

 

Местоположение метеостанции Остров Спафарьева (Магаданская область, Россия): широта 59.15 долгота 149.00 высота над уровнем моря 52 м.

В архиве по умолчанию представлена погода на Остров Спафарьева за последнюю неделю. Архивные данные за месяц целиком и за предыдущие месяцы, начиная с января 2011 года, Вы можете получить, выбрав интересующий диапазон дат из раскрывающегося списка и нажав кнопку "Ввод!".


*Определитесь, кто Вы:
робот инопланетянин человек

Внимание! Время в таблицах - всемирное. Для получения местного времени необходимо прибавить поправку, которая на Остров Спафарьева равна 11 ч.

Смотрите также архив погоды в соседних городах и на ближайших метеорологических станциях:

Погода в Талоне (Магаданская область, Россия) (72 км)
Погода в Армани (Магаданская область, Россия) (84 км)
Погода в Нагаева (Магаданская область, Россия) (106 км)
Погода в Магадане (Магаданская область, Россия) (106 км)
Погода в Оле (Магаданская область, Россия) (133 км)
Погода на Мысе Алевина (Магаданская область, Россия) (137 км)
Погода в Палатке (Магаданская область, Россия) (150 км)
Погода в Мадауне (Магаданская область, Россия) (187 км)
Погода в Усть-Омчуге (Магаданская область, Россия) (222 км)
Погода на Мысе Братьев (Магаданская область, Россия) (245 км)

Пояснения к столбцам:

Ветер - указаны скорость ветра в м/с - средняя за 10 мин, порывы в срок и между сроками (в фигурных скобках) и направление, откуда дует ветер: С - северный, СВ - северо-восточный, В - восточный, ЮВ - юго-восточный, Ю - южный, ЮЗ - юго-западный, З - западный, СЗ - северо-западный.
Видимость - горизонтальная дальность видимости в метрах или километрах. При видимости от 1 до 10 км при отсутствии осадков обычно наблюдается дымка, при ухудшении видимости до 1 км и менее - туман. В сухую погоду видимость может ухудшаться дымом, пылью или мглою.
Явления - указаны атмосферные явления, наблюдавшиеся в срок или в последний час перед сроком; фигурными скобками обозначены явления, наблюдавшиеся между сроками (за 1-3 часа до срока); квадратными скобками обозначены град или гололедные отложения с указанием их диаметра в мм.
Облачность - указаны через наклонную черту общая и нижняя облачность в баллах и высота нижней границы облаков в метрах; квадратными скобками обозначены формы облаков: Ci - перистые, Cs - перисто-слоистые, Cc - перисто-кучевые, Ac - высококучевые, As - высокослоистые, Sc - слоисто-кучевые, Ns - слоисто-дождевые, Cu - кучевые, Cb - кучево-дождевые. Подробнее классификацию облаков см. в Атласе облаков (PDF).
T - Температура воздуха - температура, измеренная на высоте 2 м над землей.
Td - Температура точки росы - температура, при понижении до которой содержащийся в воздухе водяной пар достигнет насыщения.
f - Относительная влажность воздуха - влажноcть воздуха, измеренная на высоте 2 м над землей.
Te - Эффективная температура - температура, которую ощущает одетый по сезону человек в тени. Характеристика душности погоды. При расчете учитывается влияние влажности воздуха и скорости ветра на теплоощущения человека.
Tes - Эффективная температура на солнце - температура, которую ощущает человек, с поправкой на солнечный нагрев. Характеристика знойности погоды. Зависит от высоты солнца над горизонтом, облачности и скорости ветра. Ночью, в пасмурную погоду, а также при ветре 12 м/с и более поправка равна нулю.
P - Атмосферное давление - приведенное к уровню моря атмосферное давление.
Po - Атмосферное давление - измеренное на уровне метеостанции атмосферное давление.
Tmin - Минимальная температура - минимум температуры воздуха на высоте 2 м над землей.
Tmax - Максимальная температура - максимум температуры воздуха на высоте 2 м над землей.
R - Количество осадков - Количество выпавших осадков за период времени, мм. При наведении курсора мыши на число - период времени, за который выпало указанное количество осадков.
R24 - Количество осадков - Количество выпавших осадков за 24 часа, мм.
S - Снежный покров - Высота снежного покрова, см. При наведении курсора мыши на число - состояние снежного покрова и степень покрытия местности в баллах.